TimeAKST,TemperatureF,Dew PointF,Humidity,Sea Level PressureIn,VisibilityMPH,Wind Direction,Wind SpeedMPH,Gust SpeedMPH,PrecipitationIn,Events,Conditions,WindDirDegrees,DateUTC
12:16 AM,-27.4,-9999,N/A,30.10,10.0,SSW,3.5,-,N/A,,Clear,210,2013-02-26 09:16:00
12:36 AM,-27.4,-9999,N/A,30.10,10.0,Calm,Calm,-,N/A,,Clear,0,2013-02-26 09:36:00
12:56 AM,-27.4,-9999,N/A,30.11,10.0,Calm,Calm,-,N/A,,Clear,0,2013-02-26 09:56:00
1:16 AM,-27.4,-9999,N/A,30.11,10.0,Calm,Calm,-,N/A,,Clear,0,2013-02-26 10:16:00
2:16 AM,-29.2,-9999,N/A,30.12,10.0,Calm,Calm,-,N/A,,Clear,0,2013-02-26 11:16:00
2:56 AM,-34.6,-9999,N/A,30.13,10.0,Calm,Calm,-,N/A,,Clear,0,2013-02-26 11:56:00
3:16 AM,-32.8,-9999,N/A,30.13,10.0,NNW,3.5,-,N/A,,Clear,340,2013-02-26 12:16:00
3:56 AM,-34.6,-9999,N/A,30.13,10.0,Calm,Calm,-,N/A,,Clear,0,2013-02-26 12:56:00
4:16 AM,-34.6,-9999,N/A,30.13,4.0,NE,4.6,-,N/A,,Clear,40,2013-02-26 13:16:00
5:16 AM,-36.4,-9999,N/A,30.13,10.0,Calm,Calm,-,N/A,,Clear,0,2013-02-26 14:16:00
7:36 AM,-36.4,-9999,N/A,30.11,9.0,NNW,5.8,-,N/A,,Clear,340,2013-02-26 16:36:00
7:56 AM,-36.4,-9999,N/A,30.10,7.0,NNW,4.6,-,N/A,,Clear,340,2013-02-26 16:56:00
8:16 AM,-34.6,-9999,N/A,30.10,9.0,NNW,3.5,-,N/A,,Clear,340,2013-02-26 17:16:00
8:36 AM,-34.6,-9999,N/A,30.10,7.0,NNW,5.8,-,N/A,,Clear,340,2013-02-26 17:36:00
8:56 AM,-34.6,-9999,N/A,30.09,9.0,North,5.8,-,N/A,,Clear,350,2013-02-26 17:56:00
9:16 AM,-34.6,-9999,N/A,30.09,10.0,Calm,Calm,-,N/A,,Clear,0,2013-02-26 18:16:00
9:36 AM,-36.4,-9999,N/A,30.08,7.0,Calm,Calm,-,N/A,,Clear,0,2013-02-26 18:36:00
9:56 AM,-36.4,-9999,N/A,30.08,5.0,Calm,Calm,-,N/A,,Clear,0,2013-02-26 18:56:00
10:36 AM,-38.2,-9999,N/A,30.07,1.2,Calm,Calm,-,N/A,,Clear,0,2013-02-26 19:36:00
11:16 AM,-34.6,-9999,N/A,30.06,1.2,NW,3.5,-,N/A,,Clear,310,2013-02-26 20:16:00
11:36 AM,-32.8,-9999,N/A,30.06,7.0,Calm,Calm,-,N/A,,Clear,0,2013-02-26 20:36:00
12:36 PM,-31.0,-9999,N/A,30.05,8.0,Calm,Calm,-,N/A,,Clear,0,2013-02-26 21:36:00
12:56 PM,-31.0,-9999,N/A,30.04,10.0,Calm,Calm,-,N/A,,Clear,0,2013-02-26 21:56:00
2:36 PM,-27.4,-9999,N/A,30.00,10.0,Calm,Calm,-,N/A,,Clear,0,2013-02-26 23:36:00
2:56 PM,-25.6,-9999,N/A,29.99,10.0,Calm,Calm,-,N/A,,Clear,0,2013-02-26 23:56:00
3:16 PM,-27.4,-9999,N/A,29.99,10.0,Calm,Calm,-,N/A,,Clear,0,2013-02-27 00:16:00
3:36 PM,-22.0,-9999,N/A,29.98,10.0,Calm,Calm,-,N/A,,Clear,0,2013-02-27 00:36:00
3:56 PM,-23.8,-23.8,100,29.97,10.0,WSW,3.5,-,N/A,,Clear,250,2013-02-27 00:56:00
4:16 PM,-22.0,-9999,N/A,29.96,10.0,WSW,3.5,-,N/A,,Clear,250,2013-02-27 01:16:00
4:36 PM,-20.2,-29.2,63,29.95,10.0,Calm,Calm,-,N/A,,Clear,0,2013-02-27 01:36:00
4:56 PM,-20.2,-27.4,69,29.95,10.0,Calm,Calm,-,N/A,,Clear,0,2013-02-27 01:56:00
5:16 PM,-20.2,-9999,N/A,29.93,10.0,Calm,Calm,-,N/A,,Clear,0,2013-02-27 02:16:00
5:36 PM,-20.2,-27.4,69,29.93,10.0,Calm,Calm,-,N/A,,Clear,0,2013-02-27 02:36:00
5:56 PM,-20.2,-29.2,63,29.92,10.0,Calm,Calm,-,N/A,,Clear,0,2013-02-27 02:56:00
6:16 PM,-20.2,-9999,N/A,29.91,10.0,Calm,Calm,-,N/A,,Clear,0,2013-02-27 03:16:00
6:36 PM,-20.2,-29.2,63,29.90,10.0,WSW,3.5,-,N/A,,Clear,250,2013-02-27 03:36:00
6:56 PM,-20.2,-9999,N/A,29.89,10.0,WSW,3.5,-,N/A,,Clear,250,2013-02-27 03:56:00
7:16 PM,-22.0,-9999,N/A,29.88,10.0,West,3.5,-,N/A,,Clear,260,2013-02-27 04:16:00
7:56 PM,-23.8,-9999,N/A,29.86,10.0,Calm,Calm,-,N/A,,Clear,0,2013-02-27 04:56:00
8:36 PM,-23.8,-9999,N/A,29.84,10.0,Calm,Calm,-,N/A,,Clear,0,2013-02-27 05:36:00
8:56 PM,-23.8,-9999,N/A,29.83,10.0,Calm,Calm,-,N/A,,Clear,0,2013-02-27 05:56:00
9:16 PM,-25.6,-9999,N/A,29.82,10.0,Calm,Calm,-,N/A,,Clear,0,2013-02-27 06:16:00
9:56 PM,-23.8,-29.2,76,29.81,10.0,Calm,Calm,-,N/A,,Clear,0,2013-02-27 06:56:00
10:16 PM,-16.6,-20.2,84,29.80,10.0,Calm,Calm,-,N/A,,Clear,0,2013-02-27 07:16:00
10:36 PM,-27.4,-9999,N/A,29.80,10.0,SSE,6.9,-,N/A,,Clear,150,2013-02-27 07:36:00
10:56 PM,-25.6,-9999,N/A,29.80,10.0,SE,3.5,-,N/A,,Clear,130,2013-02-27 07:56:00
11:16 PM,-29.2,-9999,N/A,29.79,10.0,WSW,4.6,-,N/A,,Clear,240,2013-02-27 08:16:00
11:36 PM,-27.4,-9999,N/A,29.78,10.0,SW,3.5,-,N/A,,Clear,220,2013-02-27 08:36:00
11:56 PM,-27.4,-9999,N/A,29.78,10.0,WSW,4.6,-,N/A,,Scattered Clouds,240,2013-02-27 08:56:00